Time,TemperatureF,DewpointF,PressureIn,WindDirection,WindDirectionDegrees,WindSpeedMPH,WindSpeedGustMPH,Humidity,HourlyPrecipIn,Conditions,Clouds,dailyrainin,SoftwareType,DateUTC
2013-02-17 00:00:00,24.0,12.9,30.23,WNW,292,2.0,3.0,62,0.00,,---,0.00,VWS V14.00,2013-02-17 06:00:00,
2013-02-17 00:05:00,24.0,12.9,30.23,WNW,292,0.0,0.0,62,0.00,,---,0.00,VWS V14.00,2013-02-17 06:05:00,
2013-02-17 00:10:00,24.0,13.2,30.23,WNW,292,0.0,0.0,63,0.00,,---,0.00,VWS V14.00,2013-02-17 06:10:00,
2013-02-17 00:15:00,24.0,12.9,30.23,WNW,292,0.0,0.0,62,0.00,,---,0.00,VWS V14.00,2013-02-17 06:15:00,
2013-02-17 00:20:00,24.0,12.9,30.23,SSW,202,0.0,0.0,62,0.00,,---,0.00,VWS V14.00,2013-02-17 06:20:00,
2013-02-17 00:25:00,24.0,12.5,30.23,SW,225,0.0,0.0,61,0.00,,---,0.00,VWS V14.00,2013-02-17 06:25:00,
2013-02-17 00:30:00,24.0,12.5,30.23,NW,315,0.0,0.0,61,0.00,,---,0.00,VWS V14.00,2013-02-17 06:30:00,
2013-02-17 00:35:00,24.0,12.5,30.23,SW,225,0.0,0.0,61,0.00,,---,0.00,VWS V14.00,2013-02-17 06:35:00,
2013-02-17 00:40:00,24.0,12.5,30.23,WSW,248,0.0,0.0,61,0.00,,---,0.00,VWS V14.00,2013-02-17 06:40:00,
2013-02-17 00:45:00,24.0,12.9,30.22,South,180,0.0,0.0,62,0.00,,---,0.00,VWS V14.00,2013-02-17 06:45:00,
2013-02-17 00:50:00,24.0,12.9,30.22,SW,225,0.0,0.0,62,0.00,,---,0.00,VWS V14.00,2013-02-17 06:50:00,
2013-02-17 00:55:00,24.0,12.9,30.22,SW,225,0.0,0.0,62,0.00,,---,0.00,VWS V14.00,2013-02-17 06:55:00,
2013-02-17 01:00:00,24.0,13.2,30.22,West,270,0.0,0.0,63,0.00,,---,0.00,VWS V14.00,2013-02-17 07:00:00,
2013-02-17 01:05:00,23.0,12.6,30.22,WSW,248,0.0,0.0,64,0.00,,---,0.00,VWS V14.00,2013-02-17 07:05:00,
2013-02-17 01:10:00,23.0,12.6,30.22,SSW,202,0.0,0.0,64,0.00,,---,0.00,VWS V14.00,2013-02-17 07:10:00,
2013-02-17 01:15:00,23.0,13.0,30.22,West,270,0.0,0.0,65,0.00,,---,0.00,VWS V14.00,2013-02-17 07:15:00,
2013-02-17 01:20:00,23.0,13.0,30.22,South,180,0.0,0.0,65,0.00,,---,0.00,VWS V14.00,2013-02-17 07:20:00,
2013-02-17 01:25:00,24.0,13.6,30.22,South,180,0.0,0.0,64,0.00,,---,0.00,VWS V14.00,2013-02-17 07:25:00,
2013-02-17 01:30:00,24.0,13.2,30.22,South,180,0.0,0.0,63,0.00,,---,0.00,VWS V14.00,2013-02-17 07:30:00,
2013-02-17 01:35:00,23.0,12.6,30.22,South,180,0.0,0.0,64,0.00,,---,0.00,VWS V14.00,2013-02-17 07:35:00,
2013-02-17 01:40:00,23.0,12.6,30.22,South,180,0.0,0.0,64,0.00,,---,0.00,VWS V14.00,2013-02-17 07:40:00,
2013-02-17 01:45:00,22.0,12.1,30.22,South,180,1.0,1.0,65,0.00,,---,0.00,VWS V14.00,2013-02-17 07:45:00,
2013-02-17 01:50:00,22.0,12.4,30.22,SSE,158,1.0,2.0,66,0.00,,---,0.00,VWS V14.00,2013-02-17 07:50:00,
2013-02-17 01:55:00,22.0,12.7,30.22,SSE,158,0.0,0.0,67,0.00,,---,0.00,VWS V14.00,2013-02-17 07:55:00,
2013-02-17 02:00:00,21.0,12.4,30.22,South,180,0.0,1.0,69,0.00,,---,0.00,VWS V14.00,2013-02-17 08:00:00,
2013-02-17 02:05:00,21.0,13.1,30.22,SW,225,0.0,0.0,71,0.00,,---,0.00,VWS V14.00,2013-02-17 08:05:00,
2013-02-17 02:10:00,20.0,13.1,30.22,North,0,3.0,4.0,74,0.00,,---,0.00,VWS V14.00,2013-02-17 08:10:00,
2013-02-17 02:15:00,20.0,14.6,30.22,NNE,22,4.0,5.0,79,0.00,,---,0.00,VWS V14.00,2013-02-17 08:15:00,
2013-02-17 02:20:00,20.0,15.1,30.22,NE,45,4.0,4.0,81,0.00,,---,0.00,VWS V14.00,2013-02-17 08:20:00,
2013-02-17 02:25:00,20.0,14.8,30.22,ENE,68,2.0,3.0,80,0.00,,---,0.00,VWS V14.00,2013-02-17 08:25:00,
2013-02-17 02:30:00,20.0,14.8,30.22,NE,45,2.0,3.0,80,0.00,,---,0.00,VWS V14.00,2013-02-17 08:30:00,
2013-02-17 02:35:00,20.0,14.8,30.22,NE,45,4.0,4.0,80,0.00,,---,0.00,VWS V14.00,2013-02-17 08:35:00,
2013-02-17 02:40:00,20.0,14.6,30.22,NE,45,5.0,5.0,79,0.00,,---,0.00,VWS V14.00,2013-02-17 08:40:00,
2013-02-17 02:45:00,21.0,14.6,30.22,ENE,68,2.0,3.0,76,0.00,,---,0.00,VWS V14.00,2013-02-17 08:45:00,
2013-02-17 02:50:00,21.0,14.3,30.22,NE,45,1.0,1.0,75,0.00,,---,0.00,VWS V14.00,2013-02-17 08:50:00,
2013-02-17 02:55:00,21.0,14.3,30.22,NE,45,3.0,5.0,75,0.00,,---,0.00,VWS V14.00,2013-02-17 08:55:00,
2013-02-17 03:00:00,20.0,13.7,30.22,NE,45,3.0,5.0,76,0.00,,---,0.00,VWS V14.00,2013-02-17 09:00:00,
2013-02-17 03:05:00,20.0,13.7,30.22,NNW,338,1.0,2.0,76,0.00,,---,0.00,VWS V14.00,2013-02-17 09:05:00,
2013-02-17 03:10:00,19.0,13.9,30.22,North,0,1.0,2.0,80,0.00,,---,0.00,VWS V14.00,2013-02-17 09:10:00,
2013-02-17 03:15:00,19.0,14.1,30.22,North,0,3.0,3.0,81,0.00,,---,0.00,VWS V14.00,2013-02-17 09:15:00,
2013-02-17 03:20:00,19.0,14.1,30.22,North,0,3.0,3.0,81,0.00,,---,0.00,VWS V14.00,2013-02-17 09:20:00,
2013-02-17 03:25:00,19.0,14.1,30.22,NNE,22,1.0,1.0,81,0.00,,---,0.00,VWS V14.00,2013-02-17 09:25:00,
2013-02-17 03:30:00,19.0,14.4,30.22,NNE,22,3.0,3.0,82,0.00,,---,0.00,VWS V14.00,2013-02-17 09:30:00,
2013-02-17 03:35:00,19.0,14.4,30.22,NE,45,2.0,3.0,82,0.00,,---,0.00,VWS V14.00,2013-02-17 09:35:00,
2013-02-17 03:40:00,19.0,14.4,30.22,East,90,1.0,1.0,82,0.00,,---,0.00,VWS V14.00,2013-02-17 09:40:00,
2013-02-17 03:45:00,18.0,14.0,30.23,East,90,1.0,1.0,84,0.00,,---,0.00,VWS V14.00,2013-02-17 09:45:00,
2013-02-17 03:50:00,17.0,13.5,30.23,SSE,158,4.0,5.0,86,0.00,,---,0.00,VWS V14.00,2013-02-17 09:50:00,
2013-02-17 03:55:00,16.0,13.3,30.23,SSW,202,3.0,5.0,89,0.00,,---,0.00,VWS V14.00,2013-02-17 09:55:00,
2013-02-17 04:00:00,17.0,14.8,30.23,SSW,202,3.0,3.0,91,0.00,,---,0.00,VWS V14.00,2013-02-17 10:00:00,
2013-02-17 04:05:00,17.0,14.8,30.23,SSW,202,3.0,3.0,91,0.00,,---,0.00,VWS V14.00,2013-02-17 10:05:00,
2013-02-17 04:10:00,18.0,15.8,30.23,South,180,1.0,2.0,91,0.00,,---,0.00,VWS V14.00,2013-02-17 10:10:00,
2013-02-17 04:15:00,18.0,15.8,30.23,SSE,158,1.0,2.0,91,0.00,,---,0.00,VWS V14.00,2013-02-17 10:15:00,
2013-02-17 04:20:00,18.0,15.8,30.23,SSE,158,2.0,3.0,91,0.00,,---,0.00,VWS V14.00,2013-02-17 10:20:00,
2013-02-17 04:25:00,19.0,16.6,30.23,SSE,158,1.0,2.0,90,0.00,,---,0.00,VWS V14.00,2013-02-17 10:25:00,
2013-02-17 04:30:00,19.0,16.3,30.23,SSE,158,2.0,3.0,89,0.00,,---,0.00,VWS V14.00,2013-02-17 10:30:00,
2013-02-17 04:35:00,18.0,15.1,30.23,SSE,158,2.0,3.0,88,0.00,,---,0.00,VWS V14.00,2013-02-17 10:35:00,
2013-02-17 04:40:00,18.0,15.3,30.23,SSE,158,3.0,3.0,89,0.00,,---,0.00,VWS V14.00,2013-02-17 10:40:00,
2013-02-17 04:45:00,18.0,15.3,30.23,SE,135,1.0,2.0,89,0.00,,---,0.00,VWS V14.00,2013-02-17 10:45:00,
2013-02-17 04:50:00,19.0,16.6,30.23,SE,135,1.0,2.0,90,0.00,,---,0.00,VWS V14.00,2013-02-17 10:50:00,
2013-02-17 04:55:00,20.0,17.0,30.23,SSE,158,3.0,3.0,88,0.00,,---,0.00,VWS V14.00,2013-02-17 10:55:00,
2013-02-17 05:00:00,20.0,16.5,30.24,SSE,158,1.0,2.0,86,0.00,,---,0.00,VWS V14.00,2013-02-17 11:00:00,
2013-02-17 05:05:00,20.0,15.9,30.24,SSE,158,1.0,2.0,84,0.00,,---,0.00,VWS V14.00,2013-02-17 11:05:00,
2013-02-17 05:10:00,19.0,14.4,30.24,SSE,158,3.0,3.0,82,0.00,,---,0.00,VWS V14.00,2013-02-17 11:10:00,
2013-02-17 05:15:00,19.0,14.7,30.24,East,90,3.0,4.0,83,0.00,,---,0.00,VWS V14.00,2013-02-17 11:15:00,
2013-02-17 05:20:00,19.0,14.7,30.24,SE,135,2.0,2.0,83,0.00,,---,0.00,VWS V14.00,2013-02-17 11:20:00,
2013-02-17 05:25:00,18.0,13.7,30.24,SE,135,2.0,3.0,83,0.00,,---,0.00,VWS V14.00,2013-02-17 11:25:00,
2013-02-17 05:30:00,17.0,13.0,30.24,SE,135,3.0,4.0,84,0.00,,---,0.00,VWS V14.00,2013-02-17 11:30:00,
2013-02-17 05:35:00,18.0,14.5,30.24,ESE,112,3.0,4.0,86,0.00,,---,0.00,VWS V14.00,2013-02-17 11:35:00,
2013-02-17 05:40:00,20.0,16.8,30.24,ESE,112,4.0,4.0,87,0.00,,---,0.00,VWS V14.00,2013-02-17 11:40:00,
2013-02-17 05:45:00,21.0,16.9,30.24,SE,135,1.0,3.0,84,0.00,,---,0.00,VWS V14.00,2013-02-17 11:45:00,
2013-02-17 05:50:00,20.0,15.1,30.24,ESE,112,2.0,2.0,81,0.00,,---,0.00,VWS V14.00,2013-02-17 11:50:00,
2013-02-17 05:55:00,20.0,15.1,30.25,ENE,68,1.0,2.0,81,0.00,,---,0.00,VWS V14.00,2013-02-17 11:55:00,
2013-02-17 06:00:00,19.0,14.1,30.25,East,90,0.0,0.0,81,0.00,,---,0.00,VWS V14.00,2013-02-17 12:00:00,
2013-02-17 06:05:00,19.0,14.4,30.25,East,90,0.0,0.0,82,0.00,,---,0.00,VWS V14.00,2013-02-17 12:05:00,
2013-02-17 06:10:00,19.0,14.4,30.25,East,90,3.0,3.0,82,0.00,,---,0.00,VWS V14.00,2013-02-17 12:10:00,
2013-02-17 06:15:00,19.0,14.7,30.25,East,90,2.0,3.0,83,0.00,,---,0.00,VWS V14.00,2013-02-17 12:15:00,
2013-02-17 06:20:00,19.0,14.7,30.25,East,90,1.0,2.0,83,0.00,,---,0.00,VWS V14.00,2013-02-17 12:20:00,
2013-02-17 06:25:00,19.0,15.0,30.25,ESE,112,1.0,1.0,84,0.00,,---,0.00,VWS V14.00,2013-02-17 12:25:00,
2013-02-17 06:30:00,19.0,15.0,30.25,ESE,112,1.0,1.0,84,0.00,,---,0.00,VWS V14.00,2013-02-17 12:30:00,
2013-02-17 06:35:00,19.0,15.2,30.25,ENE,68,3.0,3.0,85,0.00,,---,0.00,VWS V14.00,2013-02-17 12:35:00,
2013-02-17 06:40:00,19.0,15.2,30.25,ENE,68,4.0,5.0,85,0.00,,---,0.00,VWS V14.00,2013-02-17 12:40:00,
2013-02-17 06:45:00,19.0,15.2,30.25,NE,45,4.0,5.0,85,0.00,,---,0.00,VWS V14.00,2013-02-17 12:45:00,
2013-02-17 06:50:00,20.0,15.9,30.25,East,90,3.0,3.0,84,0.00,,---,0.00,VWS V14.00,2013-02-17 12:50:00,
2013-02-17 06:55:00,20.0,15.9,30.25,East,90,1.0,1.0,84,0.00,,---,0.00,VWS V14.00,2013-02-17 12:55:00,
2013-02-17 07:00:00,20.0,16.2,30.25,East,90,0.0,0.0,85,0.00,,---,0.00,VWS V14.00,2013-02-17 13:00:00,
2013-02-17 07:05:00,19.0,15.5,30.25,ENE,68,2.0,2.0,86,0.00,,---,0.00,VWS V14.00,2013-02-17 13:05:00,
2013-02-17 07:10:00,20.0,16.5,30.25,ENE,68,4.0,4.0,86,0.00,,---,0.00,VWS V14.00,2013-02-17 13:10:00,
2013-02-17 07:15:00,20.0,16.2,30.26,NE,45,3.0,4.0,85,0.00,,---,0.00,VWS V14.00,2013-02-17 13:15:00,
2013-02-17 07:20:00,21.0,17.2,30.26,NE,45,3.0,3.0,85,0.00,,---,0.00,VWS V14.00,2013-02-17 13:20:00,
2013-02-17 07:25:00,21.0,17.5,30.26,NE,45,3.0,3.0,86,0.00,,---,0.00,VWS V14.00,2013-02-17 13:25:00,
2013-02-17 07:30:00,21.0,17.8,30.26,East,90,2.0,3.0,87,0.00,,---,0.00,VWS V14.00,2013-02-17 13:30:00,
2013-02-17 07:35:00,21.0,18.0,30.26,NE,45,1.0,2.0,88,0.00,,---,0.00,VWS V14.00,2013-02-17 13:35:00,
2013-02-17 07:40:00,21.0,18.0,30.26,North,0,1.0,2.0,88,0.00,,---,0.00,VWS V14.00,2013-02-17 13:40:00,
2013-02-17 07:45:00,22.0,19.3,30.27,North,0,0.0,0.0,89,0.00,,---,0.00,VWS V14.00,2013-02-17 13:45:00,
2013-02-17 07:50:00,22.0,19.3,30.27,NE,45,3.0,3.0,89,0.00,,---,0.00,VWS V14.00,2013-02-17 13:50:00,
2013-02-17 07:55:00,22.0,19.3,30.27,ENE,68,1.0,2.0,89,0.00,,---,0.00,VWS V14.00,2013-02-17 13:55:00,
2013-02-17 08:00:00,23.0,20.2,30.27,NE,45,1.0,2.0,89,0.00,,---,0.00,VWS V14.00,2013-02-17 14:00:00,
2013-02-17 08:05:00,23.0,20.2,30.27,ESE,112,1.0,2.0,89,0.00,,---,0.00,VWS V14.00,2013-02-17 14:05:00,
2013-02-17 08:10:00,24.0,21.0,30.27,East,90,2.0,3.0,88,0.00,,---,0.00,VWS V14.00,2013-02-17 14:10:00,
2013-02-17 08:15:00,24.0,21.0,30.27,SE,135,2.0,3.0,88,0.00,,---,0.00,VWS V14.00,2013-02-17 14:15:00,
2013-02-17 08:20:00,25.0,22.0,30.27,SE,135,2.0,3.0,88,0.00,,---,0.00,VWS V14.00,2013-02-17 14:20:00,
2013-02-17 08:25:00,25.0,21.7,30.27,SE,135,3.0,4.0,87,0.00,,---,0.00,VWS V14.00,2013-02-17 14:25:00,
2013-02-17 08:30:00,25.0,21.7,30.28,SE,135,2.0,3.0,87,0.00,,---,0.00,VWS V14.00,2013-02-17 14:30:00,
2013-02-17 08:58:00,28.0,24.1,30.28,SE,135,5.0,6.0,85,0.00,,---,0.00,VWS V14.00,2013-02-17 14:58:00,
2013-02-17 10:14:00,33.0,24.6,30.27,SSE,158,5.0,8.0,71,0.00,,---,0.00,VWS V14.00,2013-02-17 16:14:00,
2013-02-17 10:19:00,34.0,25.6,30.27,ESE,112,4.0,6.0,71,0.00,,---,0.00,VWS V14.00,2013-02-17 16:19:00,
2013-02-17 10:24:00,34.0,24.6,30.27,East,90,6.0,8.0,68,0.00,,---,0.00,VWS V14.00,2013-02-17 16:24:00,
2013-02-17 10:29:00,34.0,24.2,30.27,East,90,7.0,9.0,67,0.00,,---,0.00,VWS V14.00,2013-02-17 16:29:00,
2013-02-17 10:34:00,35.0,24.1,30.27,SE,135,8.0,10.0,64,0.00,,---,0.00,VWS V14.00,2013-02-17 16:34:00,
2013-02-17 10:39:00,36.0,25.0,30.27,ESE,112,5.0,6.0,64,0.00,,---,0.00,VWS V14.00,2013-02-17 16:39:00,
2013-02-17 10:44:00,36.0,23.9,30.27,SE,135,6.0,8.0,61,0.00,,---,0.00,VWS V14.00,2013-02-17 16:44:00,
2013-02-17 10:49:00,36.0,23.9,30.27,SE,135,3.0,7.0,61,0.00,,---,0.00,VWS V14.00,2013-02-17 16:49:00,
2013-02-17 10:54:00,37.0,24.4,30.27,SE,135,3.0,8.0,60,0.00,,---,0.00,VWS V14.00,2013-02-17 16:54:00,
2013-02-17 10:59:00,37.0,24.4,30.26,ESE,112,6.0,11.0,60,0.00,,---,0.00,VWS V14.00,2013-02-17 16:59:00,
2013-02-17 11:04:00,37.0,24.4,30.26,SE,135,4.0,8.0,60,0.00,,---,0.00,VWS V14.00,2013-02-17 17:04:00,
2013-02-17 11:09:00,38.0,25.8,30.26,SSE,158,5.0,9.0,61,0.00,,---,0.00,VWS V14.00,2013-02-17 17:09:00,
2013-02-17 11:14:00,38.0,25.8,30.26,SE,135,5.0,6.0,61,0.00,,---,0.00,VWS V14.00,2013-02-17 17:14:00,
2013-02-17 11:19:00,38.0,25.8,30.26,East,90,6.0,7.0,61,0.00,,---,0.00,VWS V14.00,2013-02-17 17:19:00,
2013-02-17 11:24:00,38.0,25.8,30.26,SE,135,7.0,10.0,61,0.00,,---,0.00,VWS V14.00,2013-02-17 17:24:00,
2013-02-17 11:29:00,38.0,25.8,30.26,SSE,158,5.0,9.0,61,0.00,,---,0.00,VWS V14.00,2013-02-17 17:29:00,
2013-02-17 11:34:00,39.0,26.7,30.25,SSE,158,7.0,11.0,61,0.00,,---,0.00,VWS V14.00,2013-02-17 17:34:00,
2013-02-17 11:39:00,39.0,25.9,30.25,South,180,7.0,10.0,59,0.00,,---,0.00,VWS V14.00,2013-02-17 17:39:00,
2013-02-17 11:44:00,39.0,25.9,30.24,SE,135,11.0,11.0,59,0.00,,---,0.00,VWS V14.00,2013-02-17 17:44:00,
2013-02-17 11:49:00,40.0,26.8,30.24,SSE,158,7.0,11.0,59,0.00,,---,0.00,VWS V14.00,2013-02-17 17:49:00,
2013-02-17 11:54:00,40.0,26.4,30.24,SSE,158,9.0,11.0,58,0.00,,---,0.00,VWS V14.00,2013-02-17 17:54:00,
2013-02-17 11:59:00,41.0,25.6,30.23,SSE,158,6.0,10.0,54,0.00,,---,0.00,VWS V14.00,2013-02-17 17:59:00,
2013-02-17 12:04:00,41.0,26.1,30.23,ESE,112,6.0,11.0,55,0.00,,---,0.00,VWS V14.00,2013-02-17 18:04:00,
2013-02-17 12:09:00,42.0,26.1,30.23,South,180,6.0,9.0,53,0.00,,---,0.00,VWS V14.00,2013-02-17 18:09:00,
2013-02-17 12:14:00,41.0,25.2,30.23,ESE,112,10.0,12.0,53,0.00,,---,0.00,VWS V14.00,2013-02-17 18:14:00,
2013-02-17 12:19:00,41.0,25.6,30.22,SSW,202,9.0,10.0,54,0.00,,---,0.00,VWS V14.00,2013-02-17 18:19:00,
2013-02-17 12:24:00,41.0,25.2,30.22,SSE,158,9.0,14.0,53,0.00,,---,0.00,VWS V14.00,2013-02-17 18:24:00,
2013-02-17 12:29:00,41.0,24.7,30.22,SSE,158,8.0,12.0,52,0.00,,---,0.00,VWS V14.00,2013-02-17 18:29:00,
2013-02-17 12:33:00,42.0,25.2,30.21,SSE,158,9.0,16.0,51,0.00,,---,0.00,VWS V14.00,2013-02-17 18:33:00,
2013-02-17 12:38:00,42.0,25.2,30.21,SSE,158,9.0,12.0,51,0.00,,---,0.00,VWS V14.00,2013-02-17 18:38:00,
2013-02-17 12:43:00,42.0,22.7,30.21,South,180,11.0,16.0,46,0.00,,---,0.00,VWS V14.00,2013-02-17 18:43:00,
2013-02-17 12:48:00,43.0,24.2,30.21,SSW,202,10.0,13.0,47,0.00,,---,0.00,VWS V14.00,2013-02-17 18:48:00,
2013-02-17 12:53:00,43.0,23.6,30.20,SSE,158,9.0,13.0,46,0.00,,---,0.00,VWS V14.00,2013-02-17 18:53:00,
2013-02-17 12:58:00,43.0,24.2,30.20,SE,135,15.0,19.0,47,0.00,,---,0.00,VWS V14.00,2013-02-17 18:58:00,
2013-02-17 13:03:00,43.0,23.6,30.20,South,180,8.0,14.0,46,0.00,,---,0.00,VWS V14.00,2013-02-17 19:03:00,
2013-02-17 13:08:00,43.0,23.1,30.20,South,180,6.0,9.0,45,0.00,,---,0.00,VWS V14.00,2013-02-17 19:08:00,
2013-02-17 13:13:00,43.0,22.6,30.20,SSE,158,9.0,16.0,44,0.00,,---,0.00,VWS V14.00,2013-02-17 19:13:00,
2013-02-17 13:18:00,43.0,22.0,30.20,SSW,202,11.0,13.0,43,0.00,,---,0.00,VWS V14.00,2013-02-17 19:18:00,
2013-02-17 13:23:00,43.0,23.1,30.20,SSW,202,9.0,11.0,45,0.00,,---,0.00,VWS V14.00,2013-02-17 19:23:00,
2013-02-17 13:28:00,43.0,22.0,30.19,South,180,6.0,10.0,43,0.00,,---,0.00,VWS V14.00,2013-02-17 19:28:00,
2013-02-17 13:33:00,44.0,24.0,30.19,SE,135,10.0,12.0,45,0.00,,---,0.00,VWS V14.00,2013-02-17 19:33:00,
2013-02-17 13:38:00,44.0,24.0,30.19,SSE,158,11.0,12.0,45,0.00,,---,0.00,VWS V14.00,2013-02-17 19:38:00,
2013-02-17 13:43:00,43.0,21.5,30.18,South,180,11.0,15.0,42,0.00,,---,0.00,VWS V14.00,2013-02-17 19:43:00,
2013-02-17 13:48:00,43.0,22.0,30.18,South,180,9.0,10.0,43,0.00,,---,0.00,VWS V14.00,2013-02-17 19:48:00,
2013-02-17 13:53:00,44.0,23.5,30.18,South,180,8.0,11.0,44,0.00,,---,0.00,VWS V14.00,2013-02-17 19:53:00,
2013-02-17 13:58:00,44.0,24.0,30.17,SE,135,6.0,8.0,45,0.00,,---,0.00,VWS V14.00,2013-02-17 19:58:00,
2013-02-17 14:03:00,44.0,23.0,30.17,South,180,8.0,11.0,43,0.00,,---,0.00,VWS V14.00,2013-02-17 20:03:00,
2013-02-17 14:08:00,44.0,23.0,30.17,SE,135,7.0,10.0,43,0.00,,---,0.00,VWS V14.00,2013-02-17 20:08:00,
2013-02-17 14:13:00,44.0,23.0,30.17,SE,135,13.0,18.0,43,0.00,,---,0.00,VWS V14.00,2013-02-17 20:13:00,
2013-02-17 14:18:00,44.0,23.0,30.16,SE,135,11.0,11.0,43,0.00,,---,0.00,VWS V14.00,2013-02-17 20:18:00,
2013-02-17 14:23:00,44.0,23.0,30.16,SSE,158,8.0,12.0,43,0.00,,---,0.00,VWS V14.00,2013-02-17 20:23:00,
2013-02-17 14:28:00,45.0,24.4,30.16,SSE,158,7.0,8.0,44,0.00,,---,0.00,VWS V14.00,2013-02-17 20:28:00,
2013-02-17 14:33:00,45.0,24.4,30.16,South,180,11.0,14.0,44,0.00,,---,0.00,VWS V14.00,2013-02-17 20:33:00,
2013-02-17 14:38:00,45.0,23.9,30.16,SSE,158,7.0,11.0,43,0.00,,---,0.00,VWS V14.00,2013-02-17 20:38:00,
2013-02-17 14:43:00,45.0,23.9,30.16,SSW,202,10.0,11.0,43,0.00,,---,0.00,VWS V14.00,2013-02-17 20:43:00,
2013-02-17 14:48:00,45.0,23.9,30.16,South,180,6.0,13.0,43,0.00,,---,0.00,VWS V14.00,2013-02-17 20:48:00,
2013-02-17 14:53:00,45.0,23.9,30.16,South,180,8.0,9.0,43,0.00,,---,0.00,VWS V14.00,2013-02-17 20:53:00,
2013-02-17 14:58:00,46.0,25.9,30.15,SSE,158,10.0,11.0,45,0.00,,---,0.00,VWS V14.00,2013-02-17 20:58:00,
2013-02-17 15:03:00,45.0,23.9,30.15,SE,135,11.0,13.0,43,0.00,,---,0.00,VWS V14.00,2013-02-17 21:03:00,
2013-02-17 15:08:00,45.0,23.9,30.15,SSE,158,8.0,11.0,43,0.00,,---,0.00,VWS V14.00,2013-02-17 21:08:00,
2013-02-17 15:13:00,45.0,23.9,30.15,SSE,158,12.0,14.0,43,0.00,,---,0.00,VWS V14.00,2013-02-17 21:13:00,
2013-02-17 15:18:00,45.0,23.9,30.15,SE,135,7.0,10.0,43,0.00,,---,0.00,VWS V14.00,2013-02-17 21:18:00,
2013-02-17 15:23:00,45.0,24.4,30.15,South,180,8.0,14.0,44,0.00,,---,0.00,VWS V14.00,2013-02-17 21:23:00,
2013-02-17 15:28:00,45.0,23.9,30.15,SE,135,10.0,12.0,43,0.00,,---,0.00,VWS V14.00,2013-02-17 21:28:00,
2013-02-17 15:33:00,45.0,23.9,30.14,SE,135,14.0,16.0,43,0.00,,---,0.00,VWS V14.00,2013-02-17 21:33:00,
2013-02-17 15:38:00,46.0,24.8,30.14,SSE,158,8.0,11.0,43,0.00,,---,0.00,VWS V14.00,2013-02-17 21:38:00,
2013-02-17 15:43:00,46.0,24.2,30.14,SSE,158,14.0,14.0,42,0.00,,---,0.00,VWS V14.00,2013-02-17 21:43:00,
2013-02-17 15:48:00,46.0,24.2,30.14,SSE,158,13.0,13.0,42,0.00,,---,0.00,VWS V14.00,2013-02-17 21:48:00,
2013-02-17 15:53:00,46.0,24.2,30.14,SSE,158,8.0,13.0,42,0.00,,---,0.00,VWS V14.00,2013-02-17 21:53:00,
2013-02-17 15:58:00,46.0,24.2,30.13,SSE,158,6.0,12.0,42,0.00,,---,0.00,VWS V14.00,2013-02-17 21:58:00,
2013-02-17 16:03:00,46.0,24.8,30.13,East,90,10.0,13.0,43,0.00,,---,0.00,VWS V14.00,2013-02-17 22:03:00,
2013-02-17 16:08:00,46.0,24.2,30.13,SSE,158,10.0,11.0,42,0.00,,---,0.00,VWS V14.00,2013-02-17 22:08:00,
2013-02-17 16:13:00,46.0,24.8,30.13,SSE,158,10.0,11.0,43,0.00,,---,0.00,VWS V14.00,2013-02-17 22:13:00,
2013-02-17 16:18:00,46.0,24.8,30.13,SSE,158,8.0,11.0,43,0.00,,---,0.00,VWS V14.00,2013-02-17 22:18:00,
2013-02-17 16:23:00,46.0,24.8,30.12,SSE,158,8.0,11.0,43,0.00,,---,0.00,VWS V14.00,2013-02-17 22:23:00,
2013-02-17 16:28:00,46.0,24.2,30.12,SE,135,8.0,12.0,42,0.00,,---,0.00,VWS V14.00,2013-02-17 22:28:00,
2013-02-17 16:33:00,46.0,24.2,30.12,SE,135,11.0,14.0,42,0.00,,---,0.00,VWS V14.00,2013-02-17 22:33:00,
2013-02-17 16:38:00,46.0,24.8,30.12,SE,135,9.0,13.0,43,0.00,,---,0.00,VWS V14.00,2013-02-17 22:38:00,
2013-02-17 16:43:00,46.0,24.8,30.12,SE,135,10.0,12.0,43,0.00,,---,0.00,VWS V14.00,2013-02-17 22:43:00,
2013-02-17 16:48:00,45.0,23.9,30.12,SSE,158,10.0,11.0,43,0.00,,---,0.00,VWS V14.00,2013-02-17 22:48:00,
2013-02-17 16:53:00,45.0,23.9,30.12,SSE,158,8.0,11.0,43,0.00,,---,0.00,VWS V14.00,2013-02-17 22:53:00,
2013-02-17 16:58:00,45.0,23.9,30.12,ESE,112,8.0,8.0,43,0.00,,---,0.00,VWS V14.00,2013-02-17 22:58:00,
2013-02-17 17:03:00,45.0,24.4,30.12,SSE,158,8.0,10.0,44,0.00,,---,0.00,VWS V14.00,2013-02-17 23:03:00,
2013-02-17 17:08:00,45.0,24.4,30.12,ESE,112,9.0,11.0,44,0.00,,---,0.00,VWS V14.00,2013-02-17 23:08:00,
2013-02-17 17:13:00,45.0,24.4,30.12,SE,135,8.0,10.0,44,0.00,,---,0.00,VWS V14.00,2013-02-17 23:13:00,
2013-02-17 17:18:00,44.0,24.0,30.12,SE,135,5.0,9.0,45,0.00,,---,0.00,VWS V14.00,2013-02-17 23:18:00,
2013-02-17 17:23:00,44.0,24.0,30.12,SE,135,8.0,8.0,45,0.00,,---,0.00,VWS V14.00,2013-02-17 23:23:00,
2013-02-17 17:28:00,44.0,24.0,30.12,SE,135,8.0,10.0,45,0.00,,---,0.00,VWS V14.00,2013-02-17 23:28:00,
2013-02-17 17:33:00,44.0,24.6,30.11,SE,135,8.0,10.0,46,0.00,,---,0.00,VWS V14.00,2013-02-17 23:33:00,
2013-02-17 17:38:00,43.0,24.2,30.11,SE,135,7.0,8.0,47,0.00,,---,0.00,VWS V14.00,2013-02-17 23:38:00,
2013-02-17 17:43:00,43.0,24.2,30.11,SE,135,7.0,9.0,47,0.00,,---,0.00,VWS V14.00,2013-02-17 23:43:00,
2013-02-17 17:48:00,43.0,24.2,30.11,SE,135,8.0,8.0,47,0.00,,---,0.00,VWS V14.00,2013-02-17 23:48:00,
2013-02-17 17:53:00,43.0,24.7,30.11,SE,135,6.0,8.0,48,0.00,,---,0.00,VWS V14.00,2013-02-17 23:53:00,
2013-02-17 17:58:00,42.0,23.8,30.11,SSE,158,5.0,7.0,48,0.00,,---,0.00,VWS V14.00,2013-02-17 23:58:00,
2013-02-17 18:03:00,42.0,24.2,30.11,SE,135,6.0,6.0,49,0.00,,---,0.00,VWS V14.00,2013-02-18 00:03:00,
2013-02-17 18:08:00,42.0,24.2,30.11,ESE,112,5.0,6.0,49,0.00,,---,0.00,VWS V14.00,2013-02-18 00:08:00,
2013-02-17 18:13:00,42.0,24.7,30.11,ESE,112,5.0,6.0,50,0.00,,---,0.00,VWS V14.00,2013-02-18 00:13:00,
2013-02-17 18:18:00,42.0,24.7,30.11,ESE,112,5.0,6.0,50,0.00,,---,0.00,VWS V14.00,2013-02-18 00:18:00,
2013-02-17 18:23:00,41.0,23.8,30.11,SE,135,6.0,8.0,50,0.00,,---,0.00,VWS V14.00,2013-02-18 00:23:00,
2013-02-17 18:28:00,41.0,24.3,30.11,ESE,112,6.0,7.0,51,0.00,,---,0.00,VWS V14.00,2013-02-18 00:28:00,
2013-02-17 18:33:00,41.0,24.3,30.11,SE,135,5.0,7.0,51,0.00,,---,0.00,VWS V14.00,2013-02-18 00:33:00,
2013-02-17 18:38:00,41.0,24.7,30.11,SE,135,6.0,6.0,52,0.00,,---,0.00,VWS V14.00,2013-02-18 00:38:00,
2013-02-17 18:43:00,41.0,24.7,30.11,SE,135,7.0,8.0,52,0.00,,---,0.00,VWS V14.00,2013-02-18 00:43:00,
2013-02-17 18:48:00,41.0,25.2,30.11,SE,135,5.0,7.0,53,0.00,,---,0.00,VWS V14.00,2013-02-18 00:48:00,
2013-02-17 18:53:00,41.0,25.2,30.11,ESE,112,5.0,8.0,53,0.00,,---,0.00,VWS V14.00,2013-02-18 00:53:00,
2013-02-17 18:58:00,41.0,25.2,30.11,ESE,112,6.0,8.0,53,0.00,,---,0.00,VWS V14.00,2013-02-18 00:58:00,
2013-02-17 19:03:00,40.0,24.7,30.11,ESE,112,6.0,8.0,54,0.00,,---,0.00,VWS V14.00,2013-02-18 01:03:00,
2013-02-17 19:08:00,40.0,24.7,30.11,SE,135,8.0,8.0,54,0.00,,---,0.00,VWS V14.00,2013-02-18 01:08:00,
2013-02-17 19:13:00,40.0,24.7,30.11,ESE,112,6.0,8.0,54,0.00,,---,0.00,VWS V14.00,2013-02-18 01:13:00,
2013-02-17 19:18:00,40.0,24.7,30.11,SE,135,5.0,8.0,54,0.00,,---,0.00,VWS V14.00,2013-02-18 01:18:00,
2013-02-17 19:23:00,40.0,24.7,30.11,ESE,112,6.0,9.0,54,0.00,,---,0.00,VWS V14.00,2013-02-18 01:23:00,
2013-02-17 19:28:00,40.0,24.7,30.11,ESE,112,4.0,5.0,54,0.00,,---,0.00,VWS V14.00,2013-02-18 01:28:00,
2013-02-17 19:33:00,40.0,24.3,30.11,ESE,112,5.0,6.0,53,0.00,,---,0.00,VWS V14.00,2013-02-18 01:33:00,
2013-02-17 19:38:00,40.0,24.7,30.12,East,90,6.0,6.0,54,0.00,,---,0.00,VWS V14.00,2013-02-18 01:38:00,
2013-02-17 19:43:00,39.0,23.8,30.12,SE,135,5.0,5.0,54,0.00,,---,0.00,VWS V14.00,2013-02-18 01:43:00,
2013-02-17 19:48:00,39.0,23.8,30.12,SSE,158,6.0,8.0,54,0.00,,---,0.00,VWS V14.00,2013-02-18 01:48:00,
2013-02-17 19:53:00,39.0,24.2,30.12,SE,135,8.0,8.0,55,0.00,,---,0.00,VWS V14.00,2013-02-18 01:53:00,
2013-02-17 19:58:00,39.0,24.2,30.12,SE,135,7.0,8.0,55,0.00,,---,0.00,VWS V14.00,2013-02-18 01:58:00,
2013-02-17 20:03:00,39.0,24.6,30.12,ESE,112,7.0,8.0,56,0.00,,---,0.00,VWS V14.00,2013-02-18 02:03:00,
2013-02-17 20:08:00,39.0,24.6,30.11,ESE,112,6.0,8.0,56,0.00,,---,0.00,VWS V14.00,2013-02-18 02:08:00,
2013-02-17 20:13:00,39.0,24.6,30.11,ESE,112,5.0,8.0,56,0.00,,---,0.00,VWS V14.00,2013-02-18 02:13:00,
2013-02-17 20:18:00,39.0,24.6,30.11,SSE,158,7.0,9.0,56,0.00,,---,0.00,VWS V14.00,2013-02-18 02:18:00,
2013-02-17 20:23:00,39.0,24.6,30.12,SE,135,6.0,8.0,56,0.00,,---,0.00,VWS V14.00,2013-02-18 02:23:00,
2013-02-17 20:28:00,39.0,24.6,30.11,SE,135,8.0,10.0,56,0.00,,---,0.00,VWS V14.00,2013-02-18 02:28:00,
2013-02-17 20:33:00,39.0,24.6,30.11,SE,135,6.0,10.0,56,0.00,,---,0.00,VWS V14.00,2013-02-18 02:33:00,
2013-02-17 20:38:00,39.0,24.6,30.12,SE,135,9.0,10.0,56,0.00,,---,0.00,VWS V14.00,2013-02-18 02:38:00,
2013-02-17 20:43:00,39.0,24.2,30.11,ESE,112,9.0,10.0,55,0.00,,---,0.00,VWS V14.00,2013-02-18 02:43:00,
2013-02-17 20:48:00,39.0,24.2,30.11,SE,135,10.0,11.0,55,0.00,,---,0.00,VWS V14.00,2013-02-18 02:48:00,
2013-02-17 20:53:00,39.0,24.2,30.11,SE,135,8.0,11.0,55,0.00,,---,0.00,VWS V14.00,2013-02-18 02:53:00,
2013-02-17 20:58:00,39.0,24.2,30.12,SE,135,9.0,9.0,55,0.00,,---,0.00,VWS V14.00,2013-02-18 02:58:00,
2013-02-17 21:03:00,39.0,24.2,30.11,SE,135,10.0,11.0,55,0.00,,---,0.00,VWS V14.00,2013-02-18 03:03:00,
2013-02-17 21:08:00,39.0,24.6,30.11,ESE,112,10.0,10.0,56,0.00,,---,0.00,VWS V14.00,2013-02-18 03:08:00,
2013-02-17 21:13:00,39.0,24.6,30.11,SSE,158,8.0,9.0,56,0.00,,---,0.00,VWS V14.00,2013-02-18 03:13:00,
2013-02-17 21:18:00,39.0,24.2,30.11,SE,135,9.0,10.0,55,0.00,,---,0.00,VWS V14.00,2013-02-18 03:18:00,
2013-02-17 21:23:00,39.0,24.2,30.11,SE,135,10.0,11.0,55,0.00,,---,0.00,VWS V14.00,2013-02-18 03:23:00,
2013-02-17 21:28:00,38.0,23.7,30.10,SE,135,11.0,11.0,56,0.00,,---,0.00,VWS V14.00,2013-02-18 03:28:00,
2013-02-17 21:33:00,38.0,23.7,30.10,ESE,112,8.0,9.0,56,0.00,,---,0.00,VWS V14.00,2013-02-18 03:33:00,
2013-02-17 21:38:00,39.0,24.6,30.10,SE,135,9.0,12.0,56,0.00,,---,0.00,VWS V14.00,2013-02-18 03:38:00,
2013-02-17 21:43:00,38.0,23.7,30.10,SE,135,10.0,10.0,56,0.00,,---,0.00,VWS V14.00,2013-02-18 03:43:00,
2013-02-17 21:48:00,38.0,23.7,30.10,ESE,112,9.0,11.0,56,0.00,,---,0.00,VWS V14.00,2013-02-18 03:48:00,
2013-02-17 21:53:00,38.0,23.7,30.10,SE,135,8.0,9.0,56,0.00,,---,0.00,VWS V14.00,2013-02-18 03:53:00,
2013-02-17 21:58:00,38.0,23.7,30.10,ESE,112,9.0,9.0,56,0.00,,---,0.00,VWS V14.00,2013-02-18 03:58:00,
2013-02-17 22:03:00,38.0,24.1,30.10,SE,135,10.0,10.0,57,0.00,,---,0.00,VWS V14.00,2013-02-18 04:03:00,
2013-02-17 22:08:00,38.0,23.7,30.10,ESE,112,10.0,10.0,56,0.00,,---,0.00,VWS V14.00,2013-02-18 04:08:00,
2013-02-17 22:13:00,38.0,23.7,30.10,SE,135,11.0,11.0,56,0.00,,---,0.00,VWS V14.00,2013-02-18 04:13:00,
2013-02-17 22:18:00,38.0,23.7,30.10,SE,135,10.0,11.0,56,0.00,,---,0.00,VWS V14.00,2013-02-18 04:18:00,
2013-02-17 22:23:00,38.0,23.7,30.10,SSE,158,10.0,11.0,56,0.00,,---,0.00,VWS V14.00,2013-02-18 04:23:00,
2013-02-17 22:28:00,38.0,23.7,30.09,SE,135,10.0,11.0,56,0.00,,---,0.00,VWS V14.00,2013-02-18 04:28:00,
2013-02-17 22:33:00,38.0,23.7,30.09,SSE,158,9.0,10.0,56,0.00,,---,0.00,VWS V14.00,2013-02-18 04:33:00,
2013-02-17 22:38:00,38.0,23.7,30.09,SE,135,10.0,10.0,56,0.00,,---,0.00,VWS V14.00,2013-02-18 04:38:00,
2013-02-17 22:43:00,38.0,23.7,30.09,SE,135,8.0,8.0,56,0.00,,---,0.00,VWS V14.00,2013-02-18 04:43:00,
2013-02-17 22:48:00,38.0,23.7,30.09,ESE,112,9.0,10.0,56,0.00,,---,0.00,VWS V14.00,2013-02-18 04:48:00,
2013-02-17 22:53:00,38.0,23.7,30.08,SE,135,9.0,11.0,56,0.00,,---,0.00,VWS V14.00,2013-02-18 04:53:00,
2013-02-17 22:58:00,38.0,24.1,30.08,ESE,112,10.0,10.0,57,0.00,,---,0.00,VWS V14.00,2013-02-18 04:58:00,
2013-02-17 23:00:00,38.0,24.1,30.08,SE,135,10.0,12.0,57,0.00,,---,0.00,VWS V14.00,2013-02-18 05:00:00,
2013-02-17 23:05:00,39.0,24.6,30.08,SE,135,10.0,14.0,56,0.00,,---,0.00,VWS V14.00,2013-02-18 05:05:00,
2013-02-17 23:10:00,38.0,23.7,30.08,SE,135,11.0,13.0,56,0.00,,---,0.00,VWS V14.00,2013-02-18 05:10:00,
2013-02-17 23:15:00,39.0,24.6,30.08,SE,135,12.0,13.0,56,0.00,,---,0.00,VWS V14.00,2013-02-18 05:15:00,
2013-02-17 23:20:00,38.0,23.7,30.08,ESE,112,10.0,12.0,56,0.00,,---,0.00,VWS V14.00,2013-02-18 05:20:00,
2013-02-17 23:25:00,39.0,24.6,30.08,SE,135,10.0,13.0,56,0.00,,---,0.00,VWS V14.00,2013-02-18 05:25:00,
2013-02-17 23:30:00,39.0,24.6,30.07,SE,135,12.0,12.0,56,0.00,,---,0.00,VWS V14.00,2013-02-18 05:30:00,
2013-02-17 23:35:00,39.0,24.6,30.07,SSE,158,11.0,13.0,56,0.00,,---,0.00,VWS V14.00,2013-02-18 05:35:00,
2013-02-17 23:40:00,39.0,24.6,30.07,SE,135,10.0,12.0,56,0.00,,---,0.00,VWS V14.00,2013-02-18 05:40:00,
2013-02-17 23:45:00,39.0,24.6,30.07,SSE,158,9.0,11.0,56,0.00,,---,0.00,VWS V14.00,2013-02-18 05:45:00,
2013-02-17 23:50:00,39.0,24.6,30.07,SE,135,11.0,12.0,56,0.00,,---,0.00,VWS V14.00,2013-02-18 05:50:00,
2013-02-17 23:55:00,39.0,24.6,30.07,SE,135,10.0,13.0,56,0.00,,---,0.00,VWS V14.00,2013-02-18 05:55:00,